When you browse on this site, cookies collect data to enhance your experience and personalize the content and advertising you see.
Visit our Privacy Policy to learn more. By continuing to use the site, you agree to this use of cookies and data.
  • In United Kingdom
  • List of Countries
  • For 7 days
  • Water Temperature
  • Weather Map
  • Weather Widgets
  • user-avatar
    Login

    Hourly Weather Scarborough

    Today, 22 February, Saturday

    Time Temperature Precipitation Wind Pressure Humidity
    00:00 +8°C° 0.4 mm 12 mps 749 mmHg 87%
    01:00 +9°C° 0.3 mm 13 mps 748 mmHg 84%
    02:00 +9°C° 0.3 mm 13 mps 747 mmHg 82%
    03:00 +9°C° 0.3 mm 13 mps 746 mmHg 79%
    04:00 +8°C° 1 mm 13 mps 746 mmHg 79%
    05:00 +8°C° 1 mm 13 mps 747 mmHg 79%
    06:00 +7°C° 1 mm 13 mps 747 mmHg 79%
    07:00 +5°C° 0.1 mm 12 mps 748 mmHg 78%
    08:00 +4°C° 0.1 mm 12 mps 749 mmHg 77%
    09:00 +3°C° 0.1 mm 11 mps 749 mmHg 76%
    10:00 +3°C° 0.1 mm 12 mps 750 mmHg 71%
    11:00 +4°C° 0.1 mm 13 mps 751 mmHg 67%
    12:00 +4°C° 0.1 mm 14 mps 752 mmHg 62%
    13:00 +3°C° 0 mm 14 mps 752 mmHg 62%
    14:00 +3°C° 0 mm 14 mps 753 mmHg 62%
    15:00 +3°C° 0 mm 14 mps 753 mmHg 61%
    16:00 +1°C° 0 mm 13 mps 754 mmHg 64%
    17:00 +2°C° 0 mm 12 mps 754 mmHg 67%
    18:00 +1°C° 0 mm 11 mps 755 mmHg 71%
    19:00 +1°C° 0 mm 11 mps 755 mmHg 74%
    20:00 +1°C° 0 mm 10 mps 756 mmHg 77%
    21:00 0°C° 0 mm 10 mps 756 mmHg 80%
    22:00 0°C° 0 mm 10 mps 756 mmHg 81%
    23:00 +1°C° 0 mm 10 mps 756 mmHg 82%

    Tomorrow, 23 February, Sunday

    Time Temperature Precipitation Wind Pressure Humidity
    00:00 +1°C° 0 mm 9 mps 756 mmHg 83%
    01:00 +1°C° 0 mm 9 mps 756 mmHg 84%
    02:00 +1°C° 0 mm 9 mps 755 mmHg 85%
    03:00 +1°C° 0 mm 9 mps 755 mmHg 86%
    04:00 +2°C° 0.2 mm 7 mps 753 mmHg 89%
    05:00 +2°C° 0.2 mm 6 mps 752 mmHg 92%
    06:00 +3°C° 0.2 mm 4 mps 751 mmHg 95%
    07:00 +3°C° 1.1 mm 3 mps 750 mmHg 95%
    08:00 +3°C° 1.1 mm 3 mps 750 mmHg 96%
    09:00 +3°C° 1.1 mm 2 mps 749 mmHg 96%
    10:00 +2°C° 0.2 mm 5 mps 750 mmHg 92%
    11:00 +2°C° 0.2 mm 7 mps 752 mmHg 89%
    12:00 +2°C° 0.2 mm 9 mps 753 mmHg 86%
    13:00 +2°C° 0 mm 10 mps 754 mmHg 77%
    14:00 +2°C° 0 mm 10 mps 755 mmHg 68%
    15:00 +3°C° 0 mm 11 mps 756 mmHg 59%
    16:00 +2°C° 0 mm 10 mps 757 mmHg 64%
    17:00 +1°C° 0 mm 9 mps 758 mmHg 69%
    18:00 0°C° 0 mm 7 mps 760 mmHg 74%
    19:00 -1°C° 0 mm 6 mps 760 mmHg 76%
    20:00 -1°C° 0 mm 6 mps 761 mmHg 78%
    21:00 -1°C° 0 mm 5 mps 762 mmHg 80%
    22:00 0°C° 0 mm 4 mps 762 mmHg 80%
    23:00 +1°C° 0 mm 3 mps 762 mmHg 80%

    Day after tomorrow, 24 February, Monday

    Time Temperature Precipitation Wind Pressure Humidity
    00:00 +1°C° 0 mm 3 mps 762 mmHg 80%
    01:00 +1°C° 0.1 mm 3 mps 761 mmHg 83%
    02:00 -1°C° 0.1 mm 4 mps 760 mmHg 87%
    03:00 -1°C° 0.1 mm 5 mps 759 mmHg 90%
    04:00 -1°C° 0.3 mm 7 mps 758 mmHg 88%
    05:00 -1°C° 0.3 mm 8 mps 756 mmHg 86%
    06:00 -2°C° 0.3 mm 10 mps 755 mmHg 85%
    07:00 +1°C° 0.5 mm 10 mps 752 mmHg 88%
    08:00 +2°C° 0.5 mm 11 mps 750 mmHg 91%
    09:00 +4°C° 0.5 mm 11 mps 748 mmHg 94%
    10:00 +6°C° 0.8 mm 11 mps 747 mmHg 92%
    11:00 +7°C° 0.8 mm 11 mps 746 mmHg 89%
    12:00 +8°C° 0.8 mm 11 mps 744 mmHg 87%
    13:00 +7°C° 0.1 mm 12 mps 744 mmHg 82%
    14:00 +5°C° 0.1 mm 12 mps 744 mmHg 77%
    15:00 +4°C° 0.1 mm 13 mps 743 mmHg 72%
    16:00 +3°C° 0 mm 14 mps 743 mmHg 73%
    17:00 +1°C° 0 mm 15 mps 743 mmHg 75%
    18:00 +1°C° 0 mm 15 mps 742 mmHg 76%
    19:00 +1°C° 0 mm 16 mps 742 mmHg 76%
    20:00 +1°C° 0 mm 17 mps 742 mmHg 76%
    21:00 -1°C° 0 mm 18 mps 742 mmHg 76%
    22:00 0°C° 0 mm 17 mps 742 mmHg 78%
    23:00 0°C° 0 mm 16 mps 742 mmHg 79%

    25 February, Tuesday

    Time Temperature Precipitation Wind Pressure Humidity
    00:00 0°C° 0 mm 15 mps 742 mmHg 80%
    01:00 0°C° 0 mm 15 mps 742 mmHg 80%
    02:00 0°C° 0 mm 14 mps 742 mmHg 79%
    03:00 0°C° 0 mm 14 mps 742 mmHg 79%
    04:00 -1°C° 0 mm 14 mps 742 mmHg 78%
    05:00 -1°C° 0 mm 13 mps 742 mmHg 76%
    06:00 -1°C° 0 mm 13 mps 742 mmHg 75%
    07:00 -1°C° 0 mm 13 mps 742 mmHg 73%
    08:00 0°C° 0 mm 13 mps 742 mmHg 71%
    09:00 0°C° 0 mm 14 mps 742 mmHg 69%
    10:00 +1°C° 0 mm 13 mps 742 mmHg 66%
    11:00 +3°C° 0 mm 12 mps 743 mmHg 63%
    12:00 +3°C° 0 mm 12 mps 743 mmHg 59%
    13:00 +3°C° 0 mm 11 mps 742 mmHg 61%
    14:00 +3°C° 0 mm 10 mps 742 mmHg 62%
    15:00 +3°C° 0 mm 10 mps 742 mmHg 63%
    16:00 +2°C° 0 mm 9 mps 741 mmHg 68%
    17:00 +1°C° 0 mm 8 mps 741 mmHg 74%
    18:00 0°C° 0 mm 7 mps 740 mmHg 79%
    19:00 0°C° 0 mm 7 mps 740 mmHg 79%
    20:00 -1°C° 0 mm 7 mps 740 mmHg 78%
    21:00 -1°C° 0 mm 7 mps 740 mmHg 77%
    22:00 -1°C° 0 mm 8 mps 740 mmHg 81%
    23:00 -1°C° 0 mm 8 mps 740 mmHg 85%

    26 February, Wednesday

    Time Temperature Precipitation Wind Pressure Humidity
    00:00 -1°C° 0 mm 9 mps 740 mmHg 88%
    01:00 -1°C° 0.1 mm 9 mps 740 mmHg 86%
    02:00 -1°C° 0.1 mm 9 mps 740 mmHg 84%
    03:00 -1°C° 0.1 mm 9 mps 740 mmHg 82%
    04:00 -1°C° 0 mm 9 mps 741 mmHg 81%
    05:00 -1°C° 0 mm 9 mps 742 mmHg 80%
    06:00 -3°C° 0 mm 9 mps 742 mmHg 80%
    07:00 -1°C° 0 mm 9 mps 743 mmHg 76%
    08:00 0°C° 0 mm 10 mps 744 mmHg 72%
    09:00 0°C° 0 mm 10 mps 745 mmHg 68%
    10:00 +1°C° 0 mm 10 mps 746 mmHg 64%
    11:00 +2°C° 0 mm 10 mps 746 mmHg 61%
    12:00 +3°C° 0 mm 10 mps 747 mmHg 58%
    13:00 +3°C° 0 mm 10 mps 748 mmHg 58%
    14:00 +3°C° 0 mm 9 mps 749 mmHg 58%
    15:00 +5°C° 0 mm 9 mps 749 mmHg 58%
    16:00 +2°C° 0 mm 9 mps 750 mmHg 61%
    17:00 +1°C° 0 mm 9 mps 750 mmHg 64%
    18:00 0°C° 0 mm 9 mps 751 mmHg 67%
    19:00 -1°C° 0 mm 8 mps 752 mmHg 69%
    20:00 -1°C° 0 mm 8 mps 752 mmHg 71%
    21:00 -2°C° 0 mm 7 mps 753 mmHg 73%
    22:00 -2°C° 0 mm 7 mps 753 mmHg 77%
    23:00 -2°C° 0 mm 6 mps 753 mmHg 82%

    27 February, Thursday

    Time Temperature Precipitation Wind Pressure Humidity
    00:00 -1°C° 0 mm 5 mps 753 mmHg 87%
    01:00 -1°C° 0 mm 5 mps 753 mmHg 88%
    02:00 -1°C° 0 mm 5 mps 752 mmHg 90%
    03:00 -1°C° 0 mm 5 mps 752 mmHg 92%
    04:00 -1°C° 0 mm 5 mps 752 mmHg 92%
    05:00 -2°C° 0 mm 4 mps 752 mmHg 91%
    06:00 -2°C° 0 mm 4 mps 751 mmHg 91%
    07:00 -1°C° 0 mm 5 mps 751 mmHg 91%
    08:00 0°C° 0 mm 5 mps 750 mmHg 92%
    09:00 +1°C° 0 mm 5 mps 750 mmHg 92%
    10:00 +1°C° 0.2 mm 6 mps 749 mmHg 93%
    11:00 0°C° 0.2 mm 7 mps 748 mmHg 94%
    12:00 0°C° 0.2 mm 8 mps 746 mmHg 96%
    13:00 0°C° 0.8 mm 9 mps 744 mmHg 96%
    14:00 0°C° 0.8 mm 10 mps 743 mmHg 96%
    15:00 -1°C° 0.8 mm 11 mps 741 mmHg 96%
    16:00 +1°C° 1.4 mm 10 mps 739 mmHg 96%
    17:00 +2°C° 1.4 mm 9 mps 737 mmHg 97%
    18:00 +4°C° 1.4 mm 8 mps 736 mmHg 97%
    19:00 +5°C° 0.1 mm 8 mps 735 mmHg 93%
    20:00 +6°C° 0.1 mm 9 mps 735 mmHg 90%
    21:00 +6°C° 0.1 mm 9 mps 734 mmHg 86%
    22:00 +4°C° 0 mm 11 mps 734 mmHg 81%
    23:00 +3°C° 0 mm 12 mps 735 mmHg 75%
    Show more